This is the latest recevied weather packets stored in our database for station/object MB7UIK. If no packets are shown the sender has not sent any weather packets the latest 1 day(s).
| Time | Temp. | Humidity | Pressure | Rain* | Wind** | Luminosity | Snow |
|---|---|---|---|---|---|---|---|
| 1778052946 | 11.11° C | 100% | 1011.4 hPa | 0 mm | 2.68 m/s, 351° | - | - |
| 1778052886 | 11.11° C | 100% | 1011.5 hPa | 0 mm | 0.45 m/s, 331° | - | - |
| 1778052826 | 11.11° C | 100% | 1011.4 hPa | 0 mm | 1.34 m/s, 345° | - | - |
| 1778052766 | 11.11° C | 100% | 1011.4 hPa | 0 mm | 1.34 m/s, 323° | - | - |
| 1778052733 | 11.11° C | 100% | 1011.4 hPa | 0 mm | 1.34 m/s, 323° | - | - |
| 1778052704 | 11.11° C | 100% | 1011.4 hPa | 0 mm | 2.24 m/s, 346° | - | - |
| 1778052644 | 11.11° C | 100% | 1011.5 hPa | 0 mm | 1.34 m/s, 20° | - | - |
| 1778052585 | 11.11° C | 100% | 1011.4 hPa | 0 mm | 1.79 m/s, 333° | - | - |
| 1778052525 | 11.11° C | 100% | 1011.4 hPa | 0 mm | 1.34 m/s, 21° | - | - |
| 1778052465 | 11.11° C | 100% | 1011.4 hPa | 0 mm | 1.79 m/s, 26° | - | - |
| 1778052433 | 11.11° C | 100% | 1011.4 hPa | 0 mm | 1.79 m/s, 26° | - | - |
| 1778052405 | 11.11° C | 100% | 1011.4 hPa | 0 mm | 1.34 m/s, 318° | - | - |
| 1778052346 | 11.11° C | 100% | 1011.4 hPa | 0 mm | 2.24 m/s, 337° | - | - |
| 1778052285 | 11.11° C | 100% | 1011.4 hPa | 0 mm | 4.02 m/s, 15° | - | - |
| 1778052225 | 11.11° C | 100% | 1011.4 hPa | 0 mm | 2.24 m/s, 331° | - | - |
| 1778052165 | 11.11° C | 100% | 1011.4 hPa | 0 mm | 3.58 m/s, 355° | - | - |
| 1778052131 | 11.11° C | 100% | 1011.4 hPa | 0 mm | 3.58 m/s, 355° | - | - |
| 1778052104 | 11.11° C | 100% | 1011.4 hPa | 0 mm | 1.34 m/s, 327° | - | - |
| 1778052044 | 11.11° C | 100% | 1011.4 hPa | 0 mm | 3.13 m/s, 360° | - | - |
| 1778051984 | 11.11° C | 100% | 1011.4 hPa | 0 mm | 2.24 m/s, 336° | - | - |
| 1778051926 | 11.11° C | 100% | 1011.4 hPa | 0 mm | 3.58 m/s, 5° | - | - |
| 1778051865 | 11.11° C | 100% | 1011.4 hPa | 0 mm | 1.34 m/s, 13° | - | - |
| 1778051831 | 11.11° C | 100% | 1011.4 hPa | 0 mm | 1.34 m/s, 13° | - | - |
| 1778051805 | 11.11° C | 100% | 1011.4 hPa | 0 mm | 1.79 m/s, 9° | - | - |
| 1778051745 | 11.11° C | 100% | 1011.4 hPa | 0 mm | 1.34 m/s, 329° | - | - |
* Rain latest hour (hover to see other rain measurements)
** Current wind speed in m/s (hover to see current wind gust speed)